Weather History for PABT - December, 2013

Change the Weather History Date:

Sunday, December 1, 2013

  Actual Average Record
Temperature  
Mean Temperature -24 °F -  
Max Temperature -16 °F -3 °F 25 °F (1979)
Min Temperature -33 °F -16 °F -45 °F (1970)
Degree Days  
Heating Degree Days 90    
Moisture  
Dew Point -27 °F    
Average Humidity 73    
Maximum Humidity 78    
Minimum Humidity 60    
Precipitation  
Precipitation 0.00 in - - ()
Snow  
Snow 0.00 in - - ()
Snow Depth 19.00 in    
Sea Level Pressure  
Sea Level Pressure 30.79 in    
Wind  
Wind Speed 0 mph (NNW)    
Max Wind Speed 4 mph    
Max Gust Speed -    
Visibility 10 miles    
Events      
Averages and records for this station are not official NWS values.
T = Trace of Precipitation, MM = Missing Value Source: NWS Daily Summary

Daily Weather History Graph

Daily Weather History Graph

Search for Another Location

Airport or City:

Trip Planner

Search our weather history database for the weather conditions in past years. The results will help you decide how hot, cold, wet, or windy it might be!

Date:

Astronomy

Dec. 01, 2013 Rise Set
Actual Time 11:14 AM AKST 2:36 PM AKST
Civil Twilight 9:39 AM AKST 4:10 PM AKST
Nautical Twilight 8:22 AM AKST 5:27 PM AKST
Astronomical Twilight 7:16 AM AKST 6:33 PM AKST
Moon 8:51 AM AKST (12/1) 2:42 PM AKST (12/1)
Length of Visible Light 6h 31m
Length of Day
3h 22m
Waning Crescent, 2% of the Moon is Illuminated
Dec 1
Waning Crescent
Dec 2
New
Dec 9
First Quarter
Dec 17
Full
Dec 25
Last Quarter

Hourly Weather History & Observations

Time (AKST) Temp. Windchill Dew Point Humidity Pressure Visibility Wind Dir Wind Speed Gust Speed Precip Events Conditions
12:53 AM -27.0 °F - -33.0 °F 73% 30.77 in 10.0 mi Calm Calm - N/A   Partly Cloudy
1:53 AM -25.1 °F - -29.9 °F 78% 30.77 in 10.0 mi Calm Calm - N/A   Scattered Clouds
2:53 AM -22.0 °F - -27.9 °F 74% 30.77 in 10.0 mi Calm Calm - N/A   Mostly Cloudy
3:53 AM -20.9 °F - -27.0 °F 73% 30.76 in 10.0 mi Calm Calm - N/A   Mostly Cloudy
4:53 AM -22.0 °F - -27.9 °F 74% 30.77 in 10.0 mi Calm Calm - N/A   Mostly Cloudy
5:53 AM -20.9 °F - -27.0 °F 73% 30.77 in 10.0 mi Calm Calm - N/A   Mostly Cloudy
6:53 AM -20.0 °F - -26.0 °F 74% 30.77 in 10.0 mi Calm Calm - N/A   Scattered Clouds
7:53 AM -20.0 °F - -26.0 °F 74% 30.77 in 10.0 mi Calm Calm - N/A   Scattered Clouds
8:53 AM -22.0 °F - -27.0 °F 77% 30.78 in 10.0 mi Calm Calm - N/A   Scattered Clouds
9:53 AM -23.1 °F - -29.0 °F 74% 30.79 in 10.0 mi Calm Calm - N/A   Scattered Clouds
10:53 AM -25.1 °F - -29.9 °F 78% 30.79 in 10.0 mi Calm Calm - N/A   Scattered Clouds
11:53 AM -24.0 °F - -29.9 °F 74% 30.80 in 10.0 mi Calm Calm - N/A   Scattered Clouds
12:53 PM -24.0 °F - -29.9 °F 74% 30.81 in 10.0 mi Calm Calm - N/A   Scattered Clouds
1:53 PM -24.0 °F - -29.9 °F 74% 30.81 in 10.0 mi Calm Calm - N/A   Scattered Clouds
2:53 PM -25.1 °F - -29.9 °F 78% 30.82 in 10.0 mi Calm Calm - N/A   Scattered Clouds
3:53 PM -22.0 °F - -27.9 °F 74% 30.80 in 10.0 mi Calm Calm - N/A   Mostly Cloudy
4:36 PM -20.2 °F - -25.6 °F 76% 30.70 in 10.0 mi Calm Calm - N/A   Overcast
4:53 PM -20.0 °F - -26.0 °F 74% 30.81 in 10.0 mi Calm Calm - N/A   Overcast
5:53 PM -18.0 °F - -24.0 °F 74% 30.81 in 10.0 mi Calm Calm - N/A   Overcast
6:35 PM -16.6 °F - -23.8 °F 70% 30.72 in 10.0 mi Calm Calm - N/A   Overcast
6:53 PM -17.0 °F - -23.1 °F 74% 30.83 in 10.0 mi Calm Calm - N/A   Overcast
7:53 PM -18.0 °F -28.5 °F -24.0 °F 74% 30.82 in 10.0 mi NW 3.5 mph - N/A   Overcast
8:25 PM -18.4 °F - -25.6 °F 70% 30.73 in 10.0 mi Calm Calm - N/A   Overcast
8:53 PM -18.9 °F - -25.1 °F 74% 30.83 in 10.0 mi Calm Calm - N/A   Mostly Cloudy
9:18 PM -18.4 °F -28.9 °F -25.6 °F 70% 30.73 in 10.0 mi NNE 3.5 mph - N/A   Overcast
9:53 PM -18.0 °F - -24.0 °F 74% 30.83 in 10.0 mi Calm Calm - N/A   Overcast
10:53 PM -20.0 °F -30.7 °F -25.1 °F 78% 30.83 in 10.0 mi NNW 3.5 mph - N/A   Scattered Clouds
11:53 PM -18.9 °F -29.5 °F -25.1 °F 74% 30.84 in 10.0 mi North 3.5 mph - N/A   Scattered Clouds